Location: Benque
(43.2594°N, 0.9178°E)
Time: 04:46:59
(UTC+00:00)

Shenzhou-11 Module - Pass Details

Date: 24 January 2020
Orbit: 298 x 313 km, 42.8° (Epoch: 16 February)

Event Time Altitude Azimuth Distance (km) Brightness Sun altitude
Rises 18:45:18 0° 264° (W) 2,027 7.4 -19.6°
Reaches altitude 10° 18:47:17 10° 264° (W) 1,196 5.8 -20.0°
Enters shadow 18:49:10 41° 258° (WSW) 462 2.9 -20.3°
